Starlink 5769

operational
NORAD ID: 55585 Int'l Des: 2023-020 Owner: SPXS Country: US Constellation: starlink
LEOCIRCULAR

Über Starlink 5769

Beschreibung wird geladen...

Live-Position

3D-Globus wird geladen...

Nächste Überflüge

Höhenverlauf

Altitude vs Time

uPlot chart will show altitude changes over time

Zweizeiliger Elementsatz

1 55585U 23020S 25354.50759821 -.00000442 00000-0 -17632-4 0 9996
2 55585 43.0043 62.3294 0001246 274.1298 85.9402 15.02541590157155
Epoch: 20. Dez. 2025 • Age: 12 hours

Aktueller Status

Höhe 559.5 km
Geschwindigkeit 7.59 km/s
Subsatellitenpunkt 24.44°N, 121.1°E
Startdatum 12. Feb. 2023
Alter 2.8 years
Typ internet

Technische Details

Klassifizierung Payload
Masse 305.00 kg
Trockenmasse 290.00 kg
Gesamtmasse 305.00 kg
Länge 0.20 m
Durchmesser 2.80 m
Spannweite 9.00 m
Form Box + pan
Hersteller SPXS
Bus-Typ Starlink
Phasenstatus In Orbit
Besitzer/Staat SPXS/US

Große Konstellationen

Loading constellations...